Terminal Aerodrome Forecast
Issued by NWS Columbia, SC

Home | Current Version | Previous Version | Text Only | Print | Product List | Glossary On
Versions: 1 2 3 4 5 6 7 8 9 10 11 12 13 14 15 16 17 18 19 20 21 22 23 24 25 26 27 28 29 30 31 32 33 34 35 36 37 38 39 40 41 42 43 44 45 46 47 48 49 50
000
FTAK31 PAJN 252200 AAA
TAFAGS
TAF AMD
PAGS 252225Z 2522/2618 35004KT P6SM VCSH SCT015 OVC030
      TEMPO 2522/2602 6SM BR BKN005 OVC010
     FM260200 35004KT P6SM SCT025 OVC050
     FM260900 35005KT P6SM SCT050 BKN100
     FM261500 33010KT P6SM SCT100
      AMD NOT SKED=

USA.gov is the U.S. government's official web portal to all federal, state and local government web resources and services.